EW6020 Weather Reports


Display with metric or nautical units.
time (UTC)temp
F
wind
direction
speed
MPH
gust
MPH
rain 1hr
in
rain 24hr
in
rain mn
in
humidity
%
barometer
mb
20260503054549 62 179 3.0 8.0 0.00 0.00 0.00 80 1010.5
20260503053033 60 147 3.0 9.0 0.00 0.00 0.00 84 1010.8
20260503051532 62 178 0.0 2.0 0.00 0.00 0.00 79 1010.3
20260503050034 62 176 0.0 6.0 0.00 0.00 0.00 78 1010.3
20260503044538 62 177 1.0 9.0 0.00 0.00 0.00 79 1010.3
20260503043038 61 159 6.0 9.0 0.00 0.00 0.00 81 1010.3
20260503041530 61 177 2.0 5.0 0.00 0.00 0.00 79 1010.7
20260503040029 62 178 0.0 4.0 0.00 0.00 0.00 78 1010.5
20260503034528 62 165 5.0 7.0 0.00 0.00 0.00 79 1010.3
20260503033027 62 178 5.0 9.0 0.00 0.00 0.00 79 1010.2
20260503031527 62 175 7.0 9.0 0.00 0.00 0.00 80 1010.1
20260503030031 63 178 3.0 5.0 0.00 0.00 0.00 78 1010.3
20260503024525 63 179 2.0 4.0 0.00 0.00 0.00 77 1010.7
20260503023025 63 179 7.0 12.0 0.00 0.00 0.00 75 1010.8
20260503021524 63 156 12.0 19.0 0.00 0.00 0.00 75 1010.7
20260503020024 64 181 11.0 15.0 0.00 0.00 0.00 76 1010.6
20260503014522 64 179 7.0 11.0 0.00 0.00 0.00 75 1010.0
20260503013034 65 180 6.0 9.0 0.00 0.00 0.00 74 1009.9
20260503011521 66 176 5.0 9.0 0.00 0.00 0.00 75 1009.9
20260503010023 66 178 4.0 6.0 0.00 0.00 0.00 74 1009.9
20260503004524 66 178 3.0 5.0 0.00 0.00 0.00 73 1009.6
20260503003019 66 148 3.0 4.0 0.00 0.00 0.00 72 1009.4
20260503001518 67 180 3.0 5.0 0.00 0.00 0.00 71 1009.5
20260503000022 67 159 3.0 5.0 0.00 0.00 0.00 70 1009.5
20260502234518 67 148 2.0 6.0 0.00 0.00 0.00 70 1009.7
20260502233028 70 181 0.0 4.0 0.00 0.00 0.00 60 1010.0
20260502231510 69 181 0.0 4.0 0.00 0.00 0.00 62 1010.2
20260502230009 68 180 3.0 6.0 0.00 0.00 0.00 62 1010.4
20260502224507 67 179 2.0 8.0 0.00 0.00 0.00 64 1010.5
20260502223005 66 168 4.0 10.0 0.00 0.00 0.00 64 1010.8
20260502221506 66 169 6.0 10.0 0.00 0.00 0.00 66 1010.9
20260502220002 66 179 2.0 7.0 0.00 0.00 0.00 65 1011.3
20260502214601 67 179 4.0 9.0 0.00 0.00 0.00 65 1011.4
20260502213058 67 179 0.0 8.0 0.00 0.00 0.00 63 1011.5
20260502211555 67 179 1.0 4.0 0.00 0.00 0.00 66 1011.9
20260502210105 65 179 1.0 7.0 0.00 0.00 0.00 69 1011.8
20260502204554 64 179 4.0 8.0 0.00 0.00 0.00 70 1012.1
20260502203050 63 179 2.0 4.0 0.00 0.00 0.00 71 1012.3
20260502201543 62 179 0.0 3.0 0.00 0.00 0.00 70 1012.7
20260502200044 61 179 3.0 8.0 0.00 0.00 0.00 72 1012.9
20260502194538 60 179 2.0 5.0 0.00 0.00 0.00 74 1013.2
20260502193039 58 179 4.0 10.0 0.00 0.00 0.00 80 1013.4
20260502191539 55 158 9.0 13.0 0.00 0.00 0.00 83 1013.6
20260502190042 56 141 1.0 9.0 0.00 0.00 0.00 78 1013.3
20260502184538 58 179 2.0 10.0 0.00 0.00 0.00 74 1013.3
20260502183033 59 179 2.0 9.0 0.00 0.00 0.00 71 1013.3
20260502181537 59 179 2.0 9.0 0.00 0.00 0.00 72 1013.4
20260502163030 52 153 2.0 4.0 0.00 0.00 0.00 82 1014.4
20260502161522 52 151 4.0 7.0 0.00 0.00 0.00 83 1014.3
20260502151527 50 179 3.0 8.0 0.00 0.00 0.00 85 1014.5
20260502123050 0 0.0 0.0 0.00 0.00 0.00 1014.3
20260502121541 47 224 2.0 7.0 0.00 0.00 0.00 83 1014.2
20260502114538 48 179 0.0 3.0 0.00 0.00 0.00 82 1014.0
20260502113037 49 178 0.0 4.0 0.00 0.00 0.00 81 1013.9
20260502111539 49 155 1.0 4.0 0.00 0.00 0.00 81 1014.2
20260502110034 49 155 2.0 11.0 0.00 0.00 0.00 81 1014.0
20260502104536 49 178 3.0 12.0 0.00 0.00 0.00 80 1013.5
20260502103030 49 156 4.0 8.0 0.00 0.00 0.00 81 1013.8
20260502101526 49 150 3.0 8.0 0.00 0.00 0.00 82 1013.9
20260502091517 50 166 2.0 4.0 0.00 0.00 0.00 89 1014.5
20260502070059 54 176 2.0 4.0 0.00 0.00 0.00 69 1014.8
20260502064606 54 171 3.0 5.0 0.00 0.00 0.00 69 1014.7
20260502063103 54 155 0.0 4.0 0.00 0.00 0.00 73 1014.7
20260502061612 55 155 0.0 2.0 0.00 0.00 0.00 77 1014.7
20260502060055 55 178 1.0 4.0 0.00 0.00 0.00 81 1014.5